| time (UTC) | temp F | wind direction | speed MPH | gust MPH | rain 1hr in | rain 24hr in | rain mn in | humidity % | barometer mb |
| 20260505055520 | 44 | 270 | 4.0 | 7.0 | 0.00 | 0.06 | 0.00 | 79 | 999.8 |
| 20260505054519 | 43 | 270 | 3.0 | 6.0 | 0.00 | 0.08 | 0.00 | 80 | 999.8 |
| 20260505053518 | 43 | 293 | 4.0 | 10.0 | 0.00 | 0.10 | 0.00 | 79 | 999.7 |
| 20260505052520 | 44 | 293 | 3.0 | 7.0 | 0.00 | 0.11 | 0.00 | 78 | 999.5 |
| 20260505051520 | 44 | 293 | 2.0 | 6.0 | 0.00 | 0.13 | 0.00 | 79 | 999.5 |
| 20260505050518 | 44 | 270 | 3.0 | 8.0 | 0.00 | 0.16 | 0.00 | 78 | 999.3 |
| 20260505041518 | 45 | 293 | 3.0 | 8.0 | 0.00 | 0.24 | 0.00 | 75 | 999.1 |
| 20260505040520 | 45 | 293 | 3.0 | 7.0 | 0.00 | 0.26 | 0.00 | 74 | 999.0 |
| 20260505035520 | 45 | 293 | 4.0 | 9.0 | 0.00 | 0.28 | 0.00 | 74 | 998.8 |
| 20260505034518 | 46 | 270 | 2.0 | 6.0 | 0.00 | 0.29 | 0.00 | 78 | 998.7 |
| 20260505033518 | 46 | 270 | 6.0 | 17.0 | 0.00 | 0.30 | 0.00 | 78 | 998.6 |
| 20260505032520 | 46 | 270 | 5.0 | 10.0 | 0.00 | 0.30 | 0.00 | 78 | 998.4 |
| 20260505031518 | 46 | 270 | 4.0 | 8.0 | 0.00 | 0.30 | 0.00 | 77 | 998.3 |
| 20260505030519 | 46 | 270 | 3.0 | 9.0 | 0.00 | 0.30 | 0.00 | 77 | 998.2 |
| 20260505025518 | 46 | 270 | 4.0 | 8.0 | 0.00 | 0.30 | 0.00 | 76 | 998.1 |
| 20260505024520 | 46 | 270 | 4.0 | 8.0 | 0.00 | 0.30 | 0.00 | 75 | 998.1 |
| 20260505023521 | 46 | 293 | 4.0 | 9.0 | 0.00 | 0.30 | 0.00 | 74 | 998.0 |
| 20260505022522 | 47 | 293 | 5.0 | 9.0 | 0.00 | 0.30 | 0.00 | 72 | 997.9 |
| 20260505021540 | 47 | 293 | 5.0 | 12.0 | 0.00 | 0.30 | 0.00 | 71 | 997.9 |
| 20260505020520 | 47 | 270 | 5.0 | 12.0 | 0.00 | 0.30 | 0.00 | 70 | 997.7 |
| 20260505015520 | 47 | 293 | 5.0 | 9.0 | 0.00 | 0.30 | 0.00 | 69 | 997.8 |
| 20260505014519 | 48 | 270 | 5.0 | 11.0 | 0.00 | 0.30 | 0.00 | 67 | 997.7 |
| 20260505013518 | 48 | 270 | 5.0 | 11.0 | 0.00 | 0.30 | 0.00 | 66 | 997.7 |
| 20260505012520 | 48 | 270 | 4.0 | 11.0 | 0.00 | 0.30 | 0.00 | 65 | 997.6 |
| 20260505011520 | 48 | 248 | 6.0 | 14.0 | 0.00 | 0.30 | 0.00 | 63 | 997.6 |
| 20260505010520 | 48 | 270 | 3.0 | 8.0 | 0.00 | 0.30 | 0.00 | 62 | 997.5 |
| 20260505005520 | 48 | 248 | 3.0 | 9.0 | 0.00 | 0.30 | 0.00 | 60 | 997.4 |
| 20260505004520 | 48 | 270 | 4.0 | 10.0 | 0.00 | 0.30 | 0.00 | 59 | 997.4 |
| 20260505003524 | 49 | 248 | 4.0 | 12.0 | 0.00 | 0.30 | 0.00 | 58 | 997.3 |
| 20260505002520 | 49 | 248 | 5.0 | 14.0 | 0.00 | 0.30 | 0.00 | 57 | 997.4 |
| 20260505001520 | 49 | 270 | 2.0 | 8.0 | 0.00 | 0.30 | 0.00 | 57 | 997.3 |
| 20260505000520 | 49 | 270 | 3.0 | 9.0 | 0.00 | 0.30 | 0.00 | 56 | 997.3 |
| 20260504235540 | 48 | 270 | 4.0 | 12.0 | 0.00 | 0.30 | 0.00 | 56 | 997.2 |
| 20260504234520 | 48 | 248 | 2.0 | 6.0 | 0.00 | 0.30 | 0.00 | 57 | 997.4 |
| 20260504233540 | 48 | 225 | 2.0 | 6.0 | 0.00 | 0.30 | 0.00 | 56 | 997.4 |
| 20260504232520 | 49 | 248 | 3.0 | 9.0 | 0.00 | 0.30 | 0.00 | 55 | 997.4 |
| 20260504231520 | 49 | 270 | 3.0 | 7.0 | 0.00 | 0.30 | 0.00 | 55 | 997.5 |
| 20260504230520 | 49 | 248 | 3.0 | 6.0 | 0.00 | 0.30 | 0.00 | 55 | 997.5 |
| 20260504225520 | 49 | 225 | 1.0 | 5.0 | 0.00 | 0.30 | 0.00 | 55 | 997.6 |
| 20260504224519 | 49 | 248 | 2.0 | 5.0 | 0.00 | 0.30 | 0.00 | 54 | 997.7 |
| 20260504223519 | 50 | 248 | 2.0 | 6.0 | 0.00 | 0.30 | 0.00 | 53 | 997.7 |
| 20260504222520 | 50 | 248 | 1.0 | 5.0 | 0.00 | 0.30 | 0.00 | 53 | 997.8 |
| 20260504221520 | 51 | 248 | 2.0 | 11.0 | 0.00 | 0.30 | 0.00 | 52 | 997.9 |
| 20260504220519 | 51 | 248 | 3.0 | 5.0 | 0.00 | 0.30 | 0.00 | 50 | 997.9 |
| 20260504215520 | 50 | 270 | 2.0 | 6.0 | 0.00 | 0.30 | 0.30 | 52 | 998.0 |
| 20260504214521 | 50 | 248 | 1.0 | 5.0 | 0.00 | 0.30 | 0.30 | 53 | 998.0 |
| 20260504213521 | 50 | 248 | 1.0 | 4.0 | 0.00 | 0.30 | 0.30 | 52 | 998.1 |
| 20260504212520 | 51 | 248 | 1.0 | 3.0 | 0.00 | 0.30 | 0.30 | 53 | 998.1 |
| 20260504211520 | 51 | 270 | 1.0 | 4.0 | 0.00 | 0.30 | 0.30 | 53 | 998.1 |
| 20260504210540 | 51 | 248 | 2.0 | 5.0 | 0.00 | 0.30 | 0.30 | 52 | 998.2 |
| 20260504205523 | 51 | 248 | 2.0 | 6.0 | 0.00 | 0.30 | 0.30 | 52 | 998.2 |
| 20260504204519 | 51 | 225 | 3.0 | 7.0 | 0.00 | 0.30 | 0.30 | 53 | 998.1 |
| 20260504203519 | 51 | 248 | 2.0 | 4.0 | 0.00 | 0.30 | 0.30 | 54 | 998.2 |
| 20260504202539 | 51 | 248 | 1.0 | 6.0 | 0.00 | 0.30 | 0.30 | 57 | 998.2 |
| 20260504201519 | 51 | 248 | 2.0 | 8.0 | 0.00 | 0.30 | 0.30 | 57 | 998.2 |
| 20260504200519 | 51 | 0.0 | 4.0 | 0.00 | 0.30 | 0.30 | 60 | 998.2 | |
| 20260504195520 | 52 | 0.0 | 2.0 | 0.00 | 0.30 | 0.30 | 59 | 998.1 | |
| 20260504194519 | 52 | 270 | 1.0 | 5.0 | 0.00 | 0.30 | 0.30 | 60 | 998.1 |
| 20260504193520 | 52 | 0.0 | 2.0 | 0.00 | 0.30 | 0.30 | 60 | 998.0 | |
| 20260504192519 | 53 | 225 | 2.0 | 5.0 | 0.00 | 0.30 | 0.30 | 59 | 998.0 |
| 20260504191519 | 53 | 248 | 2.0 | 6.0 | 0.00 | 0.30 | 0.30 | 59 | 998.0 |
| 20260504190519 | 54 | 248 | 2.0 | 5.0 | 0.00 | 0.30 | 0.30 | 58 | 997.9 |
| 20260504185519 | 54 | 248 | 3.0 | 7.0 | 0.00 | 0.30 | 0.30 | 59 | 997.9 |
| 20260504184519 | 54 | 270 | 1.0 | 5.0 | 0.00 | 0.30 | 0.30 | 60 | 997.9 |
| 20260504183519 | 54 | 248 | 3.0 | 7.0 | 0.00 | 0.30 | 0.30 | 60 | 998.0 |
| 20260504182520 | 54 | 270 | 2.0 | 6.0 | 0.00 | 0.30 | 0.30 | 61 | 997.9 |
| 20260504181519 | 55 | 248 | 2.0 | 7.0 | 0.00 | 0.30 | 0.30 | 61 | 997.9 |
| 20260504180540 | 55 | 248 | 3.0 | 7.0 | 0.00 | 0.30 | 0.30 | 61 | 997.8 |
| 20260504175539 | 56 | 270 | 3.0 | 6.0 | 0.00 | 0.30 | 0.30 | 60 | 997.8 |
| 20260504174540 | 56 | 248 | 3.0 | 7.0 | 0.00 | 0.30 | 0.30 | 60 | 997.7 |
| 20260504173519 | 55 | 270 | 4.0 | 8.0 | 0.00 | 0.30 | 0.30 | 61 | 997.7 |
| 20260504172541 | 55 | 293 | 4.0 | 9.0 | 0.00 | 0.30 | 0.30 | 60 | 997.7 |
| 20260504171519 | 56 | 270 | 4.0 | 11.0 | 0.00 | 0.30 | 0.30 | 58 | 997.7 |
| 20260504170519 | 56 | 270 | 6.0 | 11.0 | 0.00 | 0.30 | 0.30 | 56 | 997.7 |
| 20260504150520 | 59 | 270 | 7.0 | 15.0 | 0.00 | 0.30 | 0.30 | 61 | 996.9 |
| 20260504140519 | 60 | 248 | 3.0 | 9.0 | 0.00 | 0.30 | 0.30 | 65 | 996.6 |
| 20260504130519 | 58 | 248 | 3.0 | 11.0 | 0.00 | 0.30 | 0.30 | 73 | 997.0 |
| 20260504110559 | 54 | 270 | 2.0 | 6.0 | 0.00 | 0.30 | 0.30 | 84 | 997.7 |
| 20260504100518 | 51 | 270 | 3.0 | 6.0 | 0.00 | 0.30 | 0.30 | 92 | 998.1 |
| 20260504081538 | 46 | 0.0 | 0.0 | 0.00 | 0.30 | 0.30 | 95 | 998.3 | |
| 20260504080518 | 45 | 90 | 1.0 | 3.0 | 0.01 | 0.30 | 0.30 | 95 | 998.2 |